Index of /20260425/WXO-DD/model_rdps/10km/06/056
Name Last modified Size Description
Parent Directory -
20260425T06Z_MSC_RDPS_AbsoluteVorticity_IsbL-0250_RLatLon0.09_PT056H.grib2 2026-04-25 08:59 603K
20260425T06Z_MSC_RDPS_AbsoluteVorticity_IsbL-0500_RLatLon0.09_PT056H.grib2 2026-04-25 08:59 684K
20260425T06Z_MSC_RDPS_AbsoluteVorticity_IsbL-0700_RLatLon0.09_PT056H.grib2 2026-04-25 08:59 615K
20260425T06Z_MSC_RDPS_AbsoluteVorticity_IsbL-0850_RLatLon0.09_PT056H.grib2 2026-04-25 08:59 782K
20260425T06Z_MSC_RDPS_AirTemp_AGL-120m_RLatLon0.09_PT056H.grib2 2026-04-25 08:59 388K
20260425T06Z_MSC_RDPS_AirTemp_AGL-2m_RLatLon0.09_PT056H.grib2 2026-04-25 08:59 649K
20260425T06Z_MSC_RDPS_AirTemp_AGL-40m_RLatLon0.09_PT056H.grib2 2026-04-25 08:59 417K
20260425T06Z_MSC_RDPS_AirTemp_AGL-80m_RLatLon0.09_PT056H.grib2 2026-04-25 08:59 411K
20260425T06Z_MSC_RDPS_AirTemp_IsbL-0001_RLatLon0.09_PT056H.grib2 2026-04-25 08:59 272K
20260425T06Z_MSC_RDPS_AirTemp_IsbL-0005_RLatLon0.09_PT056H.grib2 2026-04-25 08:59 332K
20260425T06Z_MSC_RDPS_AirTemp_IsbL-0010_RLatLon0.09_PT056H.grib2 2026-04-25 08:59 305K
20260425T06Z_MSC_RDPS_AirTemp_IsbL-0020_RLatLon0.09_PT056H.grib2 2026-04-25 08:59 322K
20260425T06Z_MSC_RDPS_AirTemp_IsbL-0030_RLatLon0.09_PT056H.grib2 2026-04-25 08:59 340K
20260425T06Z_MSC_RDPS_AirTemp_IsbL-0050_RLatLon0.09_PT056H.grib2 2026-04-25 08:59 318K
20260425T06Z_MSC_RDPS_AirTemp_IsbL-0100_RLatLon0.09_PT056H.grib2 2026-04-25 08:59 420K
20260425T06Z_MSC_RDPS_AirTemp_IsbL-0150_RLatLon0.09_PT056H.grib2 2026-04-25 08:59 414K
20260425T06Z_MSC_RDPS_AirTemp_IsbL-0175_RLatLon0.09_PT056H.grib2 2026-04-25 08:59 407K
20260425T06Z_MSC_RDPS_AirTemp_IsbL-0200_RLatLon0.09_PT056H.grib2 2026-04-25 08:59 414K
20260425T06Z_MSC_RDPS_AirTemp_IsbL-0225_RLatLon0.09_PT056H.grib2 2026-04-25 08:59 414K
20260425T06Z_MSC_RDPS_AirTemp_IsbL-0250_RLatLon0.09_PT056H.grib2 2026-04-25 08:59 421K
20260425T06Z_MSC_RDPS_AirTemp_IsbL-0275_RLatLon0.09_PT056H.grib2 2026-04-25 08:59 403K
20260425T06Z_MSC_RDPS_AirTemp_IsbL-0300_RLatLon0.09_PT056H.grib2 2026-04-25 08:59 409K
20260425T06Z_MSC_RDPS_AirTemp_IsbL-0350_RLatLon0.09_PT056H.grib2 2026-04-25 08:59 420K
20260425T06Z_MSC_RDPS_AirTemp_IsbL-0400_RLatLon0.09_PT056H.grib2 2026-04-25 08:59 420K
20260425T06Z_MSC_RDPS_AirTemp_IsbL-0450_RLatLon0.09_PT056H.grib2 2026-04-25 08:59 426K
20260425T06Z_MSC_RDPS_AirTemp_IsbL-0500_RLatLon0.09_PT056H.grib2 2026-04-25 08:59 402K
20260425T06Z_MSC_RDPS_AirTemp_IsbL-0550_RLatLon0.09_PT056H.grib2 2026-04-25 08:59 421K
20260425T06Z_MSC_RDPS_AirTemp_IsbL-0600_RLatLon0.09_PT056H.grib2 2026-04-25 08:59 437K
20260425T06Z_MSC_RDPS_AirTemp_IsbL-0650_RLatLon0.09_PT056H.grib2 2026-04-25 08:59 451K
20260425T06Z_MSC_RDPS_AirTemp_IsbL-0700_RLatLon0.09_PT056H.grib2 2026-04-25 08:59 477K
20260425T06Z_MSC_RDPS_AirTemp_IsbL-0750_RLatLon0.09_PT056H.grib2 2026-04-25 08:59 407K
20260425T06Z_MSC_RDPS_AirTemp_IsbL-0800_RLatLon0.09_PT056H.grib2 2026-04-25 08:59 458K
20260425T06Z_MSC_RDPS_AirTemp_IsbL-0850_RLatLon0.09_PT056H.grib2 2026-04-25 08:59 509K
20260425T06Z_MSC_RDPS_AirTemp_IsbL-0875_RLatLon0.09_PT056H.grib2 2026-04-25 08:59 523K
20260425T06Z_MSC_RDPS_AirTemp_IsbL-0900_RLatLon0.09_PT056H.grib2 2026-04-25 08:59 529K
20260425T06Z_MSC_RDPS_AirTemp_IsbL-0925_RLatLon0.09_PT056H.grib2 2026-04-25 08:59 530K
20260425T06Z_MSC_RDPS_AirTemp_IsbL-0950_RLatLon0.09_PT056H.grib2 2026-04-25 08:59 531K
20260425T06Z_MSC_RDPS_AirTemp_IsbL-0970_RLatLon0.09_PT056H.grib2 2026-04-25 08:59 532K
20260425T06Z_MSC_RDPS_AirTemp_IsbL-0985_RLatLon0.09_PT056H.grib2 2026-04-25 08:59 527K
20260425T06Z_MSC_RDPS_AirTemp_IsbL-1000_RLatLon0.09_PT056H.grib2 2026-04-25 08:59 510K
20260425T06Z_MSC_RDPS_AirTemp_IsbL-1015_RLatLon0.09_PT056H.grib2 2026-04-25 08:59 503K
20260425T06Z_MSC_RDPS_Albedo_Sfc_RLatLon0.09_PT056H.grib2 2026-04-25 08:59 164K
20260425T06Z_MSC_RDPS_CAPE_Sfc_RLatLon0.09_PT056H.grib2 2026-04-25 08:59 1.7M
20260425T06Z_MSC_RDPS_CIN_Sfc_RLatLon0.09_PT056H.grib2 2026-04-25 08:59 1.1M
20260425T06Z_MSC_RDPS_CloudWater_EAtm_RLatLon0.09_PT056H.grib2 2026-04-25 08:59 217K
20260425T06Z_MSC_RDPS_ConvectivePrecip-Accum_Sfc_RLatLon0.09_PT056H.grib2 2026-04-25 08:59 1.1M
20260425T06Z_MSC_RDPS_DewPointDepression_AGL-2m_RLatLon0.09_PT056H.grib2 2026-04-25 08:59 411K
20260425T06Z_MSC_RDPS_DewPointDepression_IsbL-0001_RLatLon0.09_PT056H.grib2 2026-04-25 08:59 193
20260425T06Z_MSC_RDPS_DewPointDepression_IsbL-0005_RLatLon0.09_PT056H.grib2 2026-04-25 08:59 193
20260425T06Z_MSC_RDPS_DewPointDepression_IsbL-0010_RLatLon0.09_PT056H.grib2 2026-04-25 08:59 193
20260425T06Z_MSC_RDPS_DewPointDepression_IsbL-0020_RLatLon0.09_PT056H.grib2 2026-04-25 08:59 193
20260425T06Z_MSC_RDPS_DewPointDepression_IsbL-0030_RLatLon0.09_PT056H.grib2 2026-04-25 08:59 193
20260425T06Z_MSC_RDPS_DewPointDepression_IsbL-0050_RLatLon0.09_PT056H.grib2 2026-04-25 08:59 90K
20260425T06Z_MSC_RDPS_DewPointDepression_IsbL-0100_RLatLon0.09_PT056H.grib2 2026-04-25 08:59 125K
20260425T06Z_MSC_RDPS_DewPointDepression_IsbL-0150_RLatLon0.09_PT056H.grib2 2026-04-25 08:59 144K
20260425T06Z_MSC_RDPS_DewPointDepression_IsbL-0175_RLatLon0.09_PT056H.grib2 2026-04-25 08:59 178K
20260425T06Z_MSC_RDPS_DewPointDepression_IsbL-0200_RLatLon0.09_PT056H.grib2 2026-04-25 08:59 221K
20260425T06Z_MSC_RDPS_DewPointDepression_IsbL-0225_RLatLon0.09_PT056H.grib2 2026-04-25 08:59 256K
20260425T06Z_MSC_RDPS_DewPointDepression_IsbL-0250_RLatLon0.09_PT056H.grib2 2026-04-25 08:59 292K
20260425T06Z_MSC_RDPS_DewPointDepression_IsbL-0275_RLatLon0.09_PT056H.grib2 2026-04-25 08:59 302K
20260425T06Z_MSC_RDPS_DewPointDepression_IsbL-0300_RLatLon0.09_PT056H.grib2 2026-04-25 08:59 320K
20260425T06Z_MSC_RDPS_DewPointDepression_IsbL-0350_RLatLon0.09_PT056H.grib2 2026-04-25 08:59 326K
20260425T06Z_MSC_RDPS_DewPointDepression_IsbL-0400_RLatLon0.09_PT056H.grib2 2026-04-25 08:59 344K
20260425T06Z_MSC_RDPS_DewPointDepression_IsbL-0450_RLatLon0.09_PT056H.grib2 2026-04-25 08:59 356K
20260425T06Z_MSC_RDPS_DewPointDepression_IsbL-0500_RLatLon0.09_PT056H.grib2 2026-04-25 08:59 361K
20260425T06Z_MSC_RDPS_DewPointDepression_IsbL-0550_RLatLon0.09_PT056H.grib2 2026-04-25 08:59 368K
20260425T06Z_MSC_RDPS_DewPointDepression_IsbL-0600_RLatLon0.09_PT056H.grib2 2026-04-25 08:59 376K
20260425T06Z_MSC_RDPS_DewPointDepression_IsbL-0650_RLatLon0.09_PT056H.grib2 2026-04-25 08:59 383K
20260425T06Z_MSC_RDPS_DewPointDepression_IsbL-0700_RLatLon0.09_PT056H.grib2 2026-04-25 08:59 395K
20260425T06Z_MSC_RDPS_DewPointDepression_IsbL-0750_RLatLon0.09_PT056H.grib2 2026-04-25 08:59 419K
20260425T06Z_MSC_RDPS_DewPointDepression_IsbL-0800_RLatLon0.09_PT056H.grib2 2026-04-25 08:59 456K
20260425T06Z_MSC_RDPS_DewPointDepression_IsbL-0850_RLatLon0.09_PT056H.grib2 2026-04-25 08:59 482K
20260425T06Z_MSC_RDPS_DewPointDepression_IsbL-0875_RLatLon0.09_PT056H.grib2 2026-04-25 08:59 479K
20260425T06Z_MSC_RDPS_DewPointDepression_IsbL-0900_RLatLon0.09_PT056H.grib2 2026-04-25 08:59 468K
20260425T06Z_MSC_RDPS_DewPointDepression_IsbL-0925_RLatLon0.09_PT056H.grib2 2026-04-25 08:59 457K
20260425T06Z_MSC_RDPS_DewPointDepression_IsbL-0950_RLatLon0.09_PT056H.grib2 2026-04-25 08:59 448K
20260425T06Z_MSC_RDPS_DewPointDepression_IsbL-0970_RLatLon0.09_PT056H.grib2 2026-04-25 08:59 444K
20260425T06Z_MSC_RDPS_DewPointDepression_IsbL-0985_RLatLon0.09_PT056H.grib2 2026-04-25 08:59 442K
20260425T06Z_MSC_RDPS_DewPointDepression_IsbL-1000_RLatLon0.09_PT056H.grib2 2026-04-25 08:59 438K
20260425T06Z_MSC_RDPS_DewPointDepression_IsbL-1015_RLatLon0.09_PT056H.grib2 2026-04-25 08:59 431K
20260425T06Z_MSC_RDPS_DewPoint_AGL-2m_RLatLon0.09_PT056H.grib2 2026-04-25 08:59 406K
20260425T06Z_MSC_RDPS_DownwardLongwaveRadiationFlux-Accum_Sfc_RLatLon0.09_PT056H.grib2 2026-04-25 08:59 393K
20260425T06Z_MSC_RDPS_DownwardShortwaveRadiationFlux-Accum_NTAtm_RLatLon0.09_PT056H.grib2 2026-04-25 08:59 97K
20260425T06Z_MSC_RDPS_DownwardShortwaveRadiationFlux-Accum_Sfc_RLatLon0.09_PT056H.grib2 2026-04-25 08:59 580K
20260425T06Z_MSC_RDPS_FreezingRain-Accum1h_Sfc_RLatLon0.09_PT056H.grib2 2026-04-25 08:59 33K
20260425T06Z_MSC_RDPS_FreezingRain-Accum_Sfc_RLatLon0.09_PT056H.grib2 2026-04-25 08:59 176K
20260425T06Z_MSC_RDPS_GeopotentialHeight_IsbL-0001_RLatLon0.09_PT056H.grib2 2026-04-25 08:59 274K
20260425T06Z_MSC_RDPS_GeopotentialHeight_IsbL-0005_RLatLon0.09_PT056H.grib2 2026-04-25 08:59 339K
20260425T06Z_MSC_RDPS_GeopotentialHeight_IsbL-0010_RLatLon0.09_PT056H.grib2 2026-04-25 08:59 340K
20260425T06Z_MSC_RDPS_GeopotentialHeight_IsbL-0020_RLatLon0.09_PT056H.grib2 2026-04-25 08:59 307K
20260425T06Z_MSC_RDPS_GeopotentialHeight_IsbL-0030_RLatLon0.09_PT056H.grib2 2026-04-25 08:59 308K
20260425T06Z_MSC_RDPS_GeopotentialHeight_IsbL-0050_RLatLon0.09_PT056H.grib2 2026-04-25 08:59 309K
20260425T06Z_MSC_RDPS_GeopotentialHeight_IsbL-0100_RLatLon0.09_PT056H.grib2 2026-04-25 08:59 288K
20260425T06Z_MSC_RDPS_GeopotentialHeight_IsbL-0150_RLatLon0.09_PT056H.grib2 2026-04-25 08:59 227K
20260425T06Z_MSC_RDPS_GeopotentialHeight_IsbL-0175_RLatLon0.09_PT056H.grib2 2026-04-25 08:59 229K
20260425T06Z_MSC_RDPS_GeopotentialHeight_IsbL-0200_RLatLon0.09_PT056H.grib2 2026-04-25 08:59 232K
20260425T06Z_MSC_RDPS_GeopotentialHeight_IsbL-0225_RLatLon0.09_PT056H.grib2 2026-04-25 08:59 265K
20260425T06Z_MSC_RDPS_GeopotentialHeight_IsbL-0250_RLatLon0.09_PT056H.grib2 2026-04-25 08:59 266K
20260425T06Z_MSC_RDPS_GeopotentialHeight_IsbL-0275_RLatLon0.09_PT056H.grib2 2026-04-25 08:59 234K
20260425T06Z_MSC_RDPS_GeopotentialHeight_IsbL-0300_RLatLon0.09_PT056H.grib2 2026-04-25 08:59 234K
20260425T06Z_MSC_RDPS_GeopotentialHeight_IsbL-0350_RLatLon0.09_PT056H.grib2 2026-04-25 08:59 231K
20260425T06Z_MSC_RDPS_GeopotentialHeight_IsbL-0400_RLatLon0.09_PT056H.grib2 2026-04-25 08:59 227K
20260425T06Z_MSC_RDPS_GeopotentialHeight_IsbL-0450_RLatLon0.09_PT056H.grib2 2026-04-25 08:59 296K
20260425T06Z_MSC_RDPS_GeopotentialHeight_IsbL-0500_RLatLon0.09_PT056H.grib2 2026-04-25 08:59 290K
20260425T06Z_MSC_RDPS_GeopotentialHeight_IsbL-0550_RLatLon0.09_PT056H.grib2 2026-04-25 08:59 286K
20260425T06Z_MSC_RDPS_GeopotentialHeight_IsbL-0600_RLatLon0.09_PT056H.grib2 2026-04-25 08:59 283K
20260425T06Z_MSC_RDPS_GeopotentialHeight_IsbL-0650_RLatLon0.09_PT056H.grib2 2026-04-25 08:59 281K
20260425T06Z_MSC_RDPS_GeopotentialHeight_IsbL-0700_RLatLon0.09_PT056H.grib2 2026-04-25 08:59 280K
20260425T06Z_MSC_RDPS_GeopotentialHeight_IsbL-0750_RLatLon0.09_PT056H.grib2 2026-04-25 08:59 253K
20260425T06Z_MSC_RDPS_GeopotentialHeight_IsbL-0800_RLatLon0.09_PT056H.grib2 2026-04-25 08:59 260K
20260425T06Z_MSC_RDPS_GeopotentialHeight_IsbL-0850_RLatLon0.09_PT056H.grib2 2026-04-25 08:59 268K
20260425T06Z_MSC_RDPS_GeopotentialHeight_IsbL-0875_RLatLon0.09_PT056H.grib2 2026-04-25 08:59 271K
20260425T06Z_MSC_RDPS_GeopotentialHeight_IsbL-0900_RLatLon0.09_PT056H.grib2 2026-04-25 08:59 275K
20260425T06Z_MSC_RDPS_GeopotentialHeight_IsbL-0925_RLatLon0.09_PT056H.grib2 2026-04-25 08:59 277K
20260425T06Z_MSC_RDPS_GeopotentialHeight_IsbL-0950_RLatLon0.09_PT056H.grib2 2026-04-25 08:59 280K
20260425T06Z_MSC_RDPS_GeopotentialHeight_IsbL-0970_RLatLon0.09_PT056H.grib2 2026-04-25 08:59 285K
20260425T06Z_MSC_RDPS_GeopotentialHeight_IsbL-0985_RLatLon0.09_PT056H.grib2 2026-04-25 08:59 293K
20260425T06Z_MSC_RDPS_GeopotentialHeight_IsbL-1000_RLatLon0.09_PT056H.grib2 2026-04-25 08:59 303K
20260425T06Z_MSC_RDPS_GeopotentialHeight_IsbL-1015_RLatLon0.09_PT056H.grib2 2026-04-25 08:59 316K
20260425T06Z_MSC_RDPS_Humidex_Sfc_RLatLon0.09_PT056H.grib2 2026-04-25 08:59 2.4M
20260425T06Z_MSC_RDPS_IcePellets-Accum1h_Sfc_RLatLon0.09_PT056H.grib2 2026-04-25 08:59 6.8K
20260425T06Z_MSC_RDPS_IcePellets-Accum_Sfc_RLatLon0.09_PT056H.grib2 2026-04-25 08:59 48K
20260425T06Z_MSC_RDPS_KIndex_Sfc_RLatLon0.09_PT056H.grib2 2026-04-25 08:59 2.5M
20260425T06Z_MSC_RDPS_LatentHeatNetFlux_Sfc_RLatLon0.09_PT056H.grib2 2026-04-25 08:59 365K
20260425T06Z_MSC_RDPS_LiftedIndex-MU-VT_IsbL-0500_RLatLon0.09_PT056H.grib2 2026-04-25 08:59 2.4M
20260425T06Z_MSC_RDPS_NetLongwaveRadiationFlux-Accum_Sfc_RLatLon0.09_PT056H.grib2 2026-04-25 08:59 571K
20260425T06Z_MSC_RDPS_NetShortwaveRadiationFlux-Accum_Sfc_RLatLon0.09_PT056H.grib2 2026-04-25 08:59 582K
20260425T06Z_MSC_RDPS_PlanetaryBoundaryLayerHeight_Sfc_RLatLon0.09_PT056H.grib2 2026-04-25 08:59 1.2M
20260425T06Z_MSC_RDPS_Precip-Accum1h_Sfc_RLatLon0.09_PT056H.grib2 2026-04-25 08:59 1.3M
20260425T06Z_MSC_RDPS_Precip-Accum_Sfc_RLatLon0.09_PT056H.grib2 2026-04-25 08:59 2.1M
20260425T06Z_MSC_RDPS_PrecipRate_Sfc_RLatLon0.09_PT056H.grib2 2026-04-25 08:59 193K
20260425T06Z_MSC_RDPS_PrecipType-Instant_Sfc_RLatLon0.09_PT056H.grib2 2026-04-25 08:59 586K
20260425T06Z_MSC_RDPS_Pressure-Trend3h_Sfc_RLatLon0.09_PT056H.grib2 2026-04-25 08:59 1.2M
20260425T06Z_MSC_RDPS_Pressure_MSL_RLatLon0.09_PT056H.grib2 2026-04-25 08:59 328K
20260425T06Z_MSC_RDPS_Pressure_PVU-1.5_RLatLon0.09_PT056H.grib2 2026-04-25 08:59 2.3M
20260425T06Z_MSC_RDPS_Pressure_PVU-1_RLatLon0.09_PT056H.grib2 2026-04-25 08:59 2.4M
20260425T06Z_MSC_RDPS_Pressure_PVU-2_RLatLon0.09_PT056H.grib2 2026-04-25 08:59 2.2M
20260425T06Z_MSC_RDPS_Pressure_Sfc_RLatLon0.09_PT056H.grib2 2026-04-25 08:59 500K
20260425T06Z_MSC_RDPS_RadiativeTemp_Sfc_RLatLon0.09_PT056H.grib2 2026-04-25 08:59 316K
20260425T06Z_MSC_RDPS_Rain-Accum1h_Sfc_RLatLon0.09_PT056H.grib2 2026-04-25 08:59 613K
20260425T06Z_MSC_RDPS_Rain-Accum_Sfc_RLatLon0.09_PT056H.grib2 2026-04-25 08:59 1.6M
20260425T06Z_MSC_RDPS_RelativeHumidity_AGL-2m_RLatLon0.09_PT056H.grib2 2026-04-25 08:59 1.0M
20260425T06Z_MSC_RDPS_RelativeHumidity_IsbL-0010_RLatLon0.09_PT056H.grib2 2026-04-25 08:59 629K
20260425T06Z_MSC_RDPS_RelativeHumidity_IsbL-0020_RLatLon0.09_PT056H.grib2 2026-04-25 08:59 651K
20260425T06Z_MSC_RDPS_RelativeHumidity_IsbL-0030_RLatLon0.09_PT056H.grib2 2026-04-25 08:59 541K
20260425T06Z_MSC_RDPS_RelativeHumidity_IsbL-0050_RLatLon0.09_PT056H.grib2 2026-04-25 08:59 327K
20260425T06Z_MSC_RDPS_RelativeHumidity_IsbL-0100_RLatLon0.09_PT056H.grib2 2026-04-25 08:59 272K
20260425T06Z_MSC_RDPS_RelativeHumidity_IsbL-0150_RLatLon0.09_PT056H.grib2 2026-04-25 08:59 394K
20260425T06Z_MSC_RDPS_RelativeHumidity_IsbL-0175_RLatLon0.09_PT056H.grib2 2026-04-25 08:59 473K
20260425T06Z_MSC_RDPS_RelativeHumidity_IsbL-0200_RLatLon0.09_PT056H.grib2 2026-04-25 08:59 556K
20260425T06Z_MSC_RDPS_RelativeHumidity_IsbL-0225_RLatLon0.09_PT056H.grib2 2026-04-25 08:59 617K
20260425T06Z_MSC_RDPS_RelativeHumidity_IsbL-0250_RLatLon0.09_PT056H.grib2 2026-04-25 08:59 683K
20260425T06Z_MSC_RDPS_RelativeHumidity_IsbL-0275_RLatLon0.09_PT056H.grib2 2026-04-25 08:59 709K
20260425T06Z_MSC_RDPS_RelativeHumidity_IsbL-0300_RLatLon0.09_PT056H.grib2 2026-04-25 08:59 755K
20260425T06Z_MSC_RDPS_RelativeHumidity_IsbL-0350_RLatLon0.09_PT056H.grib2 2026-04-25 08:59 777K
20260425T06Z_MSC_RDPS_RelativeHumidity_IsbL-0400_RLatLon0.09_PT056H.grib2 2026-04-25 08:59 796K
20260425T06Z_MSC_RDPS_RelativeHumidity_IsbL-0450_RLatLon0.09_PT056H.grib2 2026-04-25 08:59 811K
20260425T06Z_MSC_RDPS_RelativeHumidity_IsbL-0500_RLatLon0.09_PT056H.grib2 2026-04-25 08:59 820K
20260425T06Z_MSC_RDPS_RelativeHumidity_IsbL-0550_RLatLon0.09_PT056H.grib2 2026-04-25 08:59 833K
20260425T06Z_MSC_RDPS_RelativeHumidity_IsbL-0600_RLatLon0.09_PT056H.grib2 2026-04-25 08:59 850K
20260425T06Z_MSC_RDPS_RelativeHumidity_IsbL-0650_RLatLon0.09_PT056H.grib2 2026-04-25 08:59 863K
20260425T06Z_MSC_RDPS_RelativeHumidity_IsbL-0700_RLatLon0.09_PT056H.grib2 2026-04-25 08:59 896K
20260425T06Z_MSC_RDPS_RelativeHumidity_IsbL-0750_RLatLon0.09_PT056H.grib2 2026-04-25 08:59 941K
20260425T06Z_MSC_RDPS_RelativeHumidity_IsbL-0800_RLatLon0.09_PT056H.grib2 2026-04-25 08:59 1.0M
20260425T06Z_MSC_RDPS_RelativeHumidity_IsbL-0850_RLatLon0.09_PT056H.grib2 2026-04-25 08:59 1.1M
20260425T06Z_MSC_RDPS_RelativeHumidity_IsbL-0875_RLatLon0.09_PT056H.grib2 2026-04-25 08:59 1.1M
20260425T06Z_MSC_RDPS_RelativeHumidity_IsbL-0900_RLatLon0.09_PT056H.grib2 2026-04-25 08:59 1.1M
20260425T06Z_MSC_RDPS_RelativeHumidity_IsbL-0925_RLatLon0.09_PT056H.grib2 2026-04-25 08:59 1.1M
20260425T06Z_MSC_RDPS_RelativeHumidity_IsbL-0950_RLatLon0.09_PT056H.grib2 2026-04-25 08:59 1.1M
20260425T06Z_MSC_RDPS_RelativeHumidity_IsbL-0970_RLatLon0.09_PT056H.grib2 2026-04-25 08:59 1.1M
20260425T06Z_MSC_RDPS_RelativeHumidity_IsbL-0985_RLatLon0.09_PT056H.grib2 2026-04-25 08:59 1.1M
20260425T06Z_MSC_RDPS_RelativeHumidity_IsbL-1000_RLatLon0.09_PT056H.grib2 2026-04-25 08:59 1.0M
20260425T06Z_MSC_RDPS_RelativeHumidity_IsbL-1015_RLatLon0.09_PT056H.grib2 2026-04-25 08:59 1.0M
20260425T06Z_MSC_RDPS_Runoff-Accum_Sfc_RLatLon0.09_PT056H.grib2 2026-04-25 08:59 70K
20260425T06Z_MSC_RDPS_SWEATIndex_Sfc_RLatLon0.09_PT056H.grib2 2026-04-25 08:59 2.4M
20260425T06Z_MSC_RDPS_SeeingIndex_EAtm_RLatLon0.09_PT056H.grib2 2026-04-25 08:59 1.0M
20260425T06Z_MSC_RDPS_SensibleHeatNetFlux_Sfc_RLatLon0.09_PT056H.grib2 2026-04-25 08:59 344K
20260425T06Z_MSC_RDPS_ShowalterIndex_IsbL-0500_RLatLon0.09_PT056H.grib2 2026-04-25 08:59 2.6M
20260425T06Z_MSC_RDPS_SkyTransparencyIndex_EAtm_RLatLon0.09_PT056H.grib2 2026-04-25 08:59 733K
20260425T06Z_MSC_RDPS_Snow-Accum1h_Sfc_RLatLon0.09_PT056H.grib2 2026-04-25 08:59 411K
20260425T06Z_MSC_RDPS_Snow-Accum_Sfc_RLatLon0.09_PT056H.grib2 2026-04-25 08:59 864K
20260425T06Z_MSC_RDPS_SnowDensity_Sfc_RLatLon0.09_PT056H.grib2 2026-04-25 08:59 186K
20260425T06Z_MSC_RDPS_SnowDepth_Sfc_RLatLon0.09_PT056H.grib2 2026-04-25 08:59 737K
20260425T06Z_MSC_RDPS_SoilTemp_DBS-0to10cm_RLatLon0.09_PT056H.grib2 2026-04-25 08:59 235K
20260425T06Z_MSC_RDPS_SoilTemp_Sfc_RLatLon0.09_PT056H.grib2 2026-04-25 08:59 281K
20260425T06Z_MSC_RDPS_SoilVolumetricIceContent_Sfc_RLatLon0.09_PT056H.grib2 2026-04-25 08:59 170K
20260425T06Z_MSC_RDPS_SoilVolumetricWaterContent_DBS-0to10cm_RLatLon0.09_PT056H.grib2 2026-04-25 08:59 259K
20260425T06Z_MSC_RDPS_SoilVolumetricWaterContent_DBS-0to1cm_RLatLon0.09_PT056H.grib2 2026-04-25 08:59 343K
20260425T06Z_MSC_RDPS_SpecificHumidity_AGL-120m_RLatLon0.09_PT056H.grib2 2026-04-25 08:59 494K
20260425T06Z_MSC_RDPS_SpecificHumidity_AGL-2m_RLatLon0.09_PT056H.grib2 2026-04-25 08:59 664K
20260425T06Z_MSC_RDPS_SpecificHumidity_AGL-40m_RLatLon0.09_PT056H.grib2 2026-04-25 08:59 500K
20260425T06Z_MSC_RDPS_SpecificHumidity_AGL-80m_RLatLon0.09_PT056H.grib2 2026-04-25 08:59 496K
20260425T06Z_MSC_RDPS_SpecificHumidity_IsbL-0001_RLatLon0.09_PT056H.grib2 2026-04-25 08:59 346K
20260425T06Z_MSC_RDPS_SpecificHumidity_IsbL-0005_RLatLon0.09_PT056H.grib2 2026-04-25 08:59 456K
20260425T06Z_MSC_RDPS_SpecificHumidity_IsbL-0010_RLatLon0.09_PT056H.grib2 2026-04-25 08:59 394K
20260425T06Z_MSC_RDPS_SpecificHumidity_IsbL-0020_RLatLon0.09_PT056H.grib2 2026-04-25 08:59 384K
20260425T06Z_MSC_RDPS_SpecificHumidity_IsbL-0030_RLatLon0.09_PT056H.grib2 2026-04-25 08:59 470K
20260425T06Z_MSC_RDPS_SpecificHumidity_IsbL-0050_RLatLon0.09_PT056H.grib2 2026-04-25 08:59 493K
20260425T06Z_MSC_RDPS_SpecificHumidity_IsbL-0100_RLatLon0.09_PT056H.grib2 2026-04-25 08:59 421K
20260425T06Z_MSC_RDPS_SpecificHumidity_IsbL-0150_RLatLon0.09_PT056H.grib2 2026-04-25 08:59 364K
20260425T06Z_MSC_RDPS_SpecificHumidity_IsbL-0175_RLatLon0.09_PT056H.grib2 2026-04-25 08:59 456K
20260425T06Z_MSC_RDPS_SpecificHumidity_IsbL-0200_RLatLon0.09_PT056H.grib2 2026-04-25 08:59 455K
20260425T06Z_MSC_RDPS_SpecificHumidity_IsbL-0225_RLatLon0.09_PT056H.grib2 2026-04-25 08:59 449K
20260425T06Z_MSC_RDPS_SpecificHumidity_IsbL-0250_RLatLon0.09_PT056H.grib2 2026-04-25 08:59 550K
20260425T06Z_MSC_RDPS_SpecificHumidity_IsbL-0275_RLatLon0.09_PT056H.grib2 2026-04-25 08:59 464K
20260425T06Z_MSC_RDPS_SpecificHumidity_IsbL-0300_RLatLon0.09_PT056H.grib2 2026-04-25 08:59 534K
20260425T06Z_MSC_RDPS_SpecificHumidity_IsbL-0350_RLatLon0.09_PT056H.grib2 2026-04-25 08:59 525K
20260425T06Z_MSC_RDPS_SpecificHumidity_IsbL-0400_RLatLon0.09_PT056H.grib2 2026-04-25 08:59 510K
20260425T06Z_MSC_RDPS_SpecificHumidity_IsbL-0450_RLatLon0.09_PT056H.grib2 2026-04-25 08:59 611K
20260425T06Z_MSC_RDPS_SpecificHumidity_IsbL-0500_RLatLon0.09_PT056H.grib2 2026-04-25 08:59 509K
20260425T06Z_MSC_RDPS_SpecificHumidity_IsbL-0550_RLatLon0.09_PT056H.grib2 2026-04-25 08:59 562K
20260425T06Z_MSC_RDPS_SpecificHumidity_IsbL-0600_RLatLon0.09_PT056H.grib2 2026-04-25 08:59 627K
20260425T06Z_MSC_RDPS_SpecificHumidity_IsbL-0650_RLatLon0.09_PT056H.grib2 2026-04-25 08:59 670K
20260425T06Z_MSC_RDPS_SpecificHumidity_IsbL-0700_RLatLon0.09_PT056H.grib2 2026-04-25 08:59 589K
20260425T06Z_MSC_RDPS_SpecificHumidity_IsbL-0750_RLatLon0.09_PT056H.grib2 2026-04-25 08:59 648K
20260425T06Z_MSC_RDPS_SpecificHumidity_IsbL-0800_RLatLon0.09_PT056H.grib2 2026-04-25 08:59 726K
20260425T06Z_MSC_RDPS_SpecificHumidity_IsbL-0850_RLatLon0.09_PT056H.grib2 2026-04-25 08:59 808K
20260425T06Z_MSC_RDPS_SpecificHumidity_IsbL-0875_RLatLon0.09_PT056H.grib2 2026-04-25 08:59 829K
20260425T06Z_MSC_RDPS_SpecificHumidity_IsbL-0900_RLatLon0.09_PT056H.grib2 2026-04-25 08:59 837K
20260425T06Z_MSC_RDPS_SpecificHumidity_IsbL-0925_RLatLon0.09_PT056H.grib2 2026-04-25 08:59 839K
20260425T06Z_MSC_RDPS_SpecificHumidity_IsbL-0950_RLatLon0.09_PT056H.grib2 2026-04-25 08:59 836K
20260425T06Z_MSC_RDPS_SpecificHumidity_IsbL-0970_RLatLon0.09_PT056H.grib2 2026-04-25 08:59 831K
20260425T06Z_MSC_RDPS_SpecificHumidity_IsbL-0985_RLatLon0.09_PT056H.grib2 2026-04-25 08:59 827K
20260425T06Z_MSC_RDPS_SpecificHumidity_IsbL-1000_RLatLon0.09_PT056H.grib2 2026-04-25 08:59 683K
20260425T06Z_MSC_RDPS_SpecificHumidity_IsbL-1015_RLatLon0.09_PT056H.grib2 2026-04-25 08:59 675K
20260425T06Z_MSC_RDPS_SpecificHumidity_Sfc_RLatLon0.09_PT056H.grib2 2026-04-25 08:59 308K
20260425T06Z_MSC_RDPS_StormRelativeHelicity_EtaL-10000_RLatLon0.09_PT056H.grib2 2026-04-25 08:59 1.1M
20260425T06Z_MSC_RDPS_StormSeverityIndex_EtaL-10000_RLatLon0.09_PT056H.grib2 2026-04-25 08:59 1.2M
20260425T06Z_MSC_RDPS_Thickness_IsbL-0850to0700_RLatLon0.09_PT056H.grib2 2026-04-25 08:59 175K
20260425T06Z_MSC_RDPS_Thickness_IsbL-1000to0500_RLatLon0.09_PT056H.grib2 2026-04-25 08:59 200K
20260425T06Z_MSC_RDPS_Thickness_IsbL-1000to0850_RLatLon0.09_PT056H.grib2 2026-04-25 08:59 186K
20260425T06Z_MSC_RDPS_TotalCloudCover_Sfc_RLatLon0.09_PT056H.grib2 2026-04-25 08:59 679K
20260425T06Z_MSC_RDPS_TotalTotalsIndex_Sfc_RLatLon0.09_PT056H.grib2 2026-04-25 08:59 2.4M
20260425T06Z_MSC_RDPS_UVIndex-ClearSky_Sfc_RLatLon0.09_PT056H.grib2 2026-04-25 08:59 206K
20260425T06Z_MSC_RDPS_UVIndex_Sfc_RLatLon0.09_PT056H.grib2 2026-04-25 08:59 451K
20260425T06Z_MSC_RDPS_UpwardLongwaveRadiationFlux_NTAtm_RLatLon0.09_PT056H.grib2 2026-04-25 08:59 490K
20260425T06Z_MSC_RDPS_UpwardShortwaveRadiationFlux_NTAtm_RLatLon0.09_PT056H.grib2 2026-04-25 08:59 409K
20260425T06Z_MSC_RDPS_VerticalVelocity_IsbL-0250_RLatLon0.09_PT056H.grib2 2026-04-25 08:59 540K
20260425T06Z_MSC_RDPS_VerticalVelocity_IsbL-0500_RLatLon0.09_PT056H.grib2 2026-04-25 08:59 538K
20260425T06Z_MSC_RDPS_VerticalVelocity_IsbL-0700_RLatLon0.09_PT056H.grib2 2026-04-25 08:59 587K
20260425T06Z_MSC_RDPS_VerticalVelocity_IsbL-0850_RLatLon0.09_PT056H.grib2 2026-04-25 08:59 693K
20260425T06Z_MSC_RDPS_VerticalWindShear_EtaL-6500_RLatLon0.09_PT056H.grib2 2026-04-25 08:59 1.2M
20260425T06Z_MSC_RDPS_WindChill_Sfc_RLatLon0.09_PT056H.grib2 2026-04-25 08:59 1.3M
20260425T06Z_MSC_RDPS_WindDir_AGL-10m_RLatLon0.09_PT056H.grib2 2026-04-25 08:59 1.0M
20260425T06Z_MSC_RDPS_WindDir_AGL-120m_RLatLon0.09_PT056H.grib2 2026-04-25 08:59 626K
20260425T06Z_MSC_RDPS_WindDir_AGL-40m_RLatLon0.09_PT056H.grib2 2026-04-25 08:59 655K
20260425T06Z_MSC_RDPS_WindDir_AGL-80m_RLatLon0.09_PT056H.grib2 2026-04-25 08:59 638K
20260425T06Z_MSC_RDPS_WindDir_IsbL-0001_RLatLon0.09_PT056H.grib2 2026-04-25 08:59 294K
20260425T06Z_MSC_RDPS_WindDir_IsbL-0005_RLatLon0.09_PT056H.grib2 2026-04-25 08:59 347K
20260425T06Z_MSC_RDPS_WindDir_IsbL-0010_RLatLon0.09_PT056H.grib2 2026-04-25 08:59 375K
20260425T06Z_MSC_RDPS_WindDir_IsbL-0020_RLatLon0.09_PT056H.grib2 2026-04-25 08:59 401K
20260425T06Z_MSC_RDPS_WindDir_IsbL-0030_RLatLon0.09_PT056H.grib2 2026-04-25 08:59 415K
20260425T06Z_MSC_RDPS_WindDir_IsbL-0050_RLatLon0.09_PT056H.grib2 2026-04-25 08:59 423K
20260425T06Z_MSC_RDPS_WindDir_IsbL-0100_RLatLon0.09_PT056H.grib2 2026-04-25 08:59 401K
20260425T06Z_MSC_RDPS_WindDir_IsbL-0150_RLatLon0.09_PT056H.grib2 2026-04-25 08:59 401K
20260425T06Z_MSC_RDPS_WindDir_IsbL-0175_RLatLon0.09_PT056H.grib2 2026-04-25 08:59 423K
20260425T06Z_MSC_RDPS_WindDir_IsbL-0200_RLatLon0.09_PT056H.grib2 2026-04-25 08:59 439K
20260425T06Z_MSC_RDPS_WindDir_IsbL-0225_RLatLon0.09_PT056H.grib2 2026-04-25 08:59 448K
20260425T06Z_MSC_RDPS_WindDir_IsbL-0250_RLatLon0.09_PT056H.grib2 2026-04-25 08:59 453K
20260425T06Z_MSC_RDPS_WindDir_IsbL-0275_RLatLon0.09_PT056H.grib2 2026-04-25 08:59 476K
20260425T06Z_MSC_RDPS_WindDir_IsbL-0300_RLatLon0.09_PT056H.grib2 2026-04-25 08:59 474K
20260425T06Z_MSC_RDPS_WindDir_IsbL-0350_RLatLon0.09_PT056H.grib2 2026-04-25 08:59 493K
20260425T06Z_MSC_RDPS_WindDir_IsbL-0400_RLatLon0.09_PT056H.grib2 2026-04-25 08:59 512K
20260425T06Z_MSC_RDPS_WindDir_IsbL-0450_RLatLon0.09_PT056H.grib2 2026-04-25 08:59 524K
20260425T06Z_MSC_RDPS_WindDir_IsbL-0500_RLatLon0.09_PT056H.grib2 2026-04-25 08:59 537K
20260425T06Z_MSC_RDPS_WindDir_IsbL-0550_RLatLon0.09_PT056H.grib2 2026-04-25 08:59 547K
20260425T06Z_MSC_RDPS_WindDir_IsbL-0600_RLatLon0.09_PT056H.grib2 2026-04-25 08:59 575K
20260425T06Z_MSC_RDPS_WindDir_IsbL-0650_RLatLon0.09_PT056H.grib2 2026-04-25 08:59 622K
20260425T06Z_MSC_RDPS_WindDir_IsbL-0700_RLatLon0.09_PT056H.grib2 2026-04-25 08:59 668K
20260425T06Z_MSC_RDPS_WindDir_IsbL-0750_RLatLon0.09_PT056H.grib2 2026-04-25 08:59 719K
20260425T06Z_MSC_RDPS_WindDir_IsbL-0800_RLatLon0.09_PT056H.grib2 2026-04-25 08:59 796K
20260425T06Z_MSC_RDPS_WindDir_IsbL-0850_RLatLon0.09_PT056H.grib2 2026-04-25 08:59 865K
20260425T06Z_MSC_RDPS_WindDir_IsbL-0875_RLatLon0.09_PT056H.grib2 2026-04-25 08:59 892K
20260425T06Z_MSC_RDPS_WindDir_IsbL-0900_RLatLon0.09_PT056H.grib2 2026-04-25 08:59 911K
20260425T06Z_MSC_RDPS_WindDir_IsbL-0925_RLatLon0.09_PT056H.grib2 2026-04-25 08:59 922K
20260425T06Z_MSC_RDPS_WindDir_IsbL-0950_RLatLon0.09_PT056H.grib2 2026-04-25 08:59 925K
20260425T06Z_MSC_RDPS_WindDir_IsbL-0970_RLatLon0.09_PT056H.grib2 2026-04-25 08:59 930K
20260425T06Z_MSC_RDPS_WindDir_IsbL-0985_RLatLon0.09_PT056H.grib2 2026-04-25 08:59 944K
20260425T06Z_MSC_RDPS_WindDir_IsbL-1000_RLatLon0.09_PT056H.grib2 2026-04-25 08:59 962K
20260425T06Z_MSC_RDPS_WindDir_IsbL-1015_RLatLon0.09_PT056H.grib2 2026-04-25 08:59 1.0M
20260425T06Z_MSC_RDPS_WindGust-Max_AGL-10m_RLatLon0.09_PT056H.grib2 2026-04-25 08:59 961K
20260425T06Z_MSC_RDPS_WindGust-Min_AGL-10m_RLatLon0.09_PT056H.grib2 2026-04-25 08:59 1.0M
20260425T06Z_MSC_RDPS_WindGust_AGL-10m_RLatLon0.09_PT056H.grib2 2026-04-25 08:59 1.0M
20260425T06Z_MSC_RDPS_WindSpeed_AGL-10m_RLatLon0.09_PT056H.grib2 2026-04-25 08:59 856K
20260425T06Z_MSC_RDPS_WindSpeed_AGL-120m_RLatLon0.09_PT056H.grib2 2026-04-25 08:59 560K
20260425T06Z_MSC_RDPS_WindSpeed_AGL-40m_RLatLon0.09_PT056H.grib2 2026-04-25 08:59 552K
20260425T06Z_MSC_RDPS_WindSpeed_AGL-80m_RLatLon0.09_PT056H.grib2 2026-04-25 08:59 561K
20260425T06Z_MSC_RDPS_WindSpeed_IsbL-0001_RLatLon0.09_PT056H.grib2 2026-04-25 08:59 253K
20260425T06Z_MSC_RDPS_WindSpeed_IsbL-0005_RLatLon0.09_PT056H.grib2 2026-04-25 08:59 298K
20260425T06Z_MSC_RDPS_WindSpeed_IsbL-0010_RLatLon0.09_PT056H.grib2 2026-04-25 08:59 404K
20260425T06Z_MSC_RDPS_WindSpeed_IsbL-0020_RLatLon0.09_PT056H.grib2 2026-04-25 08:59 326K
20260425T06Z_MSC_RDPS_WindSpeed_IsbL-0030_RLatLon0.09_PT056H.grib2 2026-04-25 08:59 323K
20260425T06Z_MSC_RDPS_WindSpeed_IsbL-0050_RLatLon0.09_PT056H.grib2 2026-04-25 08:59 356K
20260425T06Z_MSC_RDPS_WindSpeed_IsbL-0100_RLatLon0.09_PT056H.grib2 2026-04-25 08:59 471K
20260425T06Z_MSC_RDPS_WindSpeed_IsbL-0150_RLatLon0.09_PT056H.grib2 2026-04-25 08:59 370K
20260425T06Z_MSC_RDPS_WindSpeed_IsbL-0175_RLatLon0.09_PT056H.grib2 2026-04-25 08:59 398K
20260425T06Z_MSC_RDPS_WindSpeed_IsbL-0200_RLatLon0.09_PT056H.grib2 2026-04-25 08:59 438K
20260425T06Z_MSC_RDPS_WindSpeed_IsbL-0225_RLatLon0.09_PT056H.grib2 2026-04-25 08:59 444K
20260425T06Z_MSC_RDPS_WindSpeed_IsbL-0250_RLatLon0.09_PT056H.grib2 2026-04-25 08:59 445K
20260425T06Z_MSC_RDPS_WindSpeed_IsbL-0275_RLatLon0.09_PT056H.grib2 2026-04-25 08:59 462K
20260425T06Z_MSC_RDPS_WindSpeed_IsbL-0300_RLatLon0.09_PT056H.grib2 2026-04-25 08:59 461K
20260425T06Z_MSC_RDPS_WindSpeed_IsbL-0350_RLatLon0.09_PT056H.grib2 2026-04-25 08:59 474K
20260425T06Z_MSC_RDPS_WindSpeed_IsbL-0400_RLatLon0.09_PT056H.grib2 2026-04-25 08:59 461K
20260425T06Z_MSC_RDPS_WindSpeed_IsbL-0450_RLatLon0.09_PT056H.grib2 2026-04-25 08:59 458K
20260425T06Z_MSC_RDPS_WindSpeed_IsbL-0500_RLatLon0.09_PT056H.grib2 2026-04-25 08:59 573K
20260425T06Z_MSC_RDPS_WindSpeed_IsbL-0550_RLatLon0.09_PT056H.grib2 2026-04-25 08:59 571K
20260425T06Z_MSC_RDPS_WindSpeed_IsbL-0600_RLatLon0.09_PT056H.grib2 2026-04-25 08:59 624K
20260425T06Z_MSC_RDPS_WindSpeed_IsbL-0650_RLatLon0.09_PT056H.grib2 2026-04-25 08:59 648K
20260425T06Z_MSC_RDPS_WindSpeed_IsbL-0700_RLatLon0.09_PT056H.grib2 2026-04-25 08:59 672K
20260425T06Z_MSC_RDPS_WindSpeed_IsbL-0750_RLatLon0.09_PT056H.grib2 2026-04-25 08:59 702K
20260425T06Z_MSC_RDPS_WindSpeed_IsbL-0800_RLatLon0.09_PT056H.grib2 2026-04-25 08:59 757K
20260425T06Z_MSC_RDPS_WindSpeed_IsbL-0850_RLatLon0.09_PT056H.grib2 2026-04-25 08:59 817K
20260425T06Z_MSC_RDPS_WindSpeed_IsbL-0875_RLatLon0.09_PT056H.grib2 2026-04-25 08:59 792K
20260425T06Z_MSC_RDPS_WindSpeed_IsbL-0900_RLatLon0.09_PT056H.grib2 2026-04-25 08:59 855K
20260425T06Z_MSC_RDPS_WindSpeed_IsbL-0925_RLatLon0.09_PT056H.grib2 2026-04-25 08:59 868K
20260425T06Z_MSC_RDPS_WindSpeed_IsbL-0950_RLatLon0.09_PT056H.grib2 2026-04-25 08:59 870K
20260425T06Z_MSC_RDPS_WindSpeed_IsbL-0970_RLatLon0.09_PT056H.grib2 2026-04-25 08:59 865K
20260425T06Z_MSC_RDPS_WindSpeed_IsbL-0985_RLatLon0.09_PT056H.grib2 2026-04-25 08:59 865K
20260425T06Z_MSC_RDPS_WindSpeed_IsbL-1000_RLatLon0.09_PT056H.grib2 2026-04-25 08:59 861K
20260425T06Z_MSC_RDPS_WindSpeed_IsbL-1015_RLatLon0.09_PT056H.grib2 2026-04-25 08:59 854K
20260425T06Z_MSC_RDPS_WindU_AGL-10m_RLatLon0.09_PT056H.grib2 2026-04-25 08:59 391K
20260425T06Z_MSC_RDPS_WindU_AGL-120m_RLatLon0.09_PT056H.grib2 2026-04-25 08:59 425K
20260425T06Z_MSC_RDPS_WindU_AGL-40m_RLatLon0.09_PT056H.grib2 2026-04-25 08:59 428K
20260425T06Z_MSC_RDPS_WindU_AGL-80m_RLatLon0.09_PT056H.grib2 2026-04-25 08:59 427K
20260425T06Z_MSC_RDPS_WindU_IsbL-0001_RLatLon0.09_PT056H.grib2 2026-04-25 08:59 293K
20260425T06Z_MSC_RDPS_WindU_IsbL-0005_RLatLon0.09_PT056H.grib2 2026-04-25 08:59 332K
20260425T06Z_MSC_RDPS_WindU_IsbL-0010_RLatLon0.09_PT056H.grib2 2026-04-25 08:59 302K
20260425T06Z_MSC_RDPS_WindU_IsbL-0020_RLatLon0.09_PT056H.grib2 2026-04-25 08:59 358K
20260425T06Z_MSC_RDPS_WindU_IsbL-0030_RLatLon0.09_PT056H.grib2 2026-04-25 08:59 355K
20260425T06Z_MSC_RDPS_WindU_IsbL-0050_RLatLon0.09_PT056H.grib2 2026-04-25 08:59 384K
20260425T06Z_MSC_RDPS_WindU_IsbL-0100_RLatLon0.09_PT056H.grib2 2026-04-25 08:59 429K
20260425T06Z_MSC_RDPS_WindU_IsbL-0150_RLatLon0.09_PT056H.grib2 2026-04-25 08:59 386K
20260425T06Z_MSC_RDPS_WindU_IsbL-0175_RLatLon0.09_PT056H.grib2 2026-04-25 08:59 413K
20260425T06Z_MSC_RDPS_WindU_IsbL-0200_RLatLon0.09_PT056H.grib2 2026-04-25 08:59 332K
20260425T06Z_MSC_RDPS_WindU_IsbL-0225_RLatLon0.09_PT056H.grib2 2026-04-25 08:59 337K
20260425T06Z_MSC_RDPS_WindU_IsbL-0250_RLatLon0.09_PT056H.grib2 2026-04-25 08:59 338K
20260425T06Z_MSC_RDPS_WindU_IsbL-0275_RLatLon0.09_PT056H.grib2 2026-04-25 08:59 351K
20260425T06Z_MSC_RDPS_WindU_IsbL-0300_RLatLon0.09_PT056H.grib2 2026-04-25 08:59 348K
20260425T06Z_MSC_RDPS_WindU_IsbL-0350_RLatLon0.09_PT056H.grib2 2026-04-25 08:59 358K
20260425T06Z_MSC_RDPS_WindU_IsbL-0400_RLatLon0.09_PT056H.grib2 2026-04-25 08:59 465K
20260425T06Z_MSC_RDPS_WindU_IsbL-0450_RLatLon0.09_PT056H.grib2 2026-04-25 08:59 463K
20260425T06Z_MSC_RDPS_WindU_IsbL-0500_RLatLon0.09_PT056H.grib2 2026-04-25 08:59 463K
20260425T06Z_MSC_RDPS_WindU_IsbL-0550_RLatLon0.09_PT056H.grib2 2026-04-25 08:59 462K
20260425T06Z_MSC_RDPS_WindU_IsbL-0600_RLatLon0.09_PT056H.grib2 2026-04-25 08:59 471K
20260425T06Z_MSC_RDPS_WindU_IsbL-0650_RLatLon0.09_PT056H.grib2 2026-04-25 08:59 491K
20260425T06Z_MSC_RDPS_WindU_IsbL-0700_RLatLon0.09_PT056H.grib2 2026-04-25 08:59 511K
20260425T06Z_MSC_RDPS_WindU_IsbL-0750_RLatLon0.09_PT056H.grib2 2026-04-25 08:59 537K
20260425T06Z_MSC_RDPS_WindU_IsbL-0800_RLatLon0.09_PT056H.grib2 2026-04-25 08:59 584K
20260425T06Z_MSC_RDPS_WindU_IsbL-0850_RLatLon0.09_PT056H.grib2 2026-04-25 08:59 634K
20260425T06Z_MSC_RDPS_WindU_IsbL-0875_RLatLon0.09_PT056H.grib2 2026-04-25 08:59 651K
20260425T06Z_MSC_RDPS_WindU_IsbL-0900_RLatLon0.09_PT056H.grib2 2026-04-25 08:59 656K
20260425T06Z_MSC_RDPS_WindU_IsbL-0925_RLatLon0.09_PT056H.grib2 2026-04-25 08:59 664K
20260425T06Z_MSC_RDPS_WindU_IsbL-0950_RLatLon0.09_PT056H.grib2 2026-04-25 08:59 663K
20260425T06Z_MSC_RDPS_WindU_IsbL-0970_RLatLon0.09_PT056H.grib2 2026-04-25 08:59 658K
20260425T06Z_MSC_RDPS_WindU_IsbL-0985_RLatLon0.09_PT056H.grib2 2026-04-25 08:59 658K
20260425T06Z_MSC_RDPS_WindU_IsbL-1000_RLatLon0.09_PT056H.grib2 2026-04-25 08:59 658K
20260425T06Z_MSC_RDPS_WindU_IsbL-1015_RLatLon0.09_PT056H.grib2 2026-04-25 08:59 654K
20260425T06Z_MSC_RDPS_WindV_AGL-10m_RLatLon0.09_PT056H.grib2 2026-04-25 08:59 438K
20260425T06Z_MSC_RDPS_WindV_AGL-120m_RLatLon0.09_PT056H.grib2 2026-04-25 08:59 424K
20260425T06Z_MSC_RDPS_WindV_AGL-40m_RLatLon0.09_PT056H.grib2 2026-04-25 08:59 544K
20260425T06Z_MSC_RDPS_WindV_AGL-80m_RLatLon0.09_PT056H.grib2 2026-04-25 08:59 425K
20260425T06Z_MSC_RDPS_WindV_IsbL-0001_RLatLon0.09_PT056H.grib2 2026-04-25 08:59 291K
20260425T06Z_MSC_RDPS_WindV_IsbL-0005_RLatLon0.09_PT056H.grib2 2026-04-25 08:59 331K
20260425T06Z_MSC_RDPS_WindV_IsbL-0010_RLatLon0.09_PT056H.grib2 2026-04-25 08:59 303K
20260425T06Z_MSC_RDPS_WindV_IsbL-0020_RLatLon0.09_PT056H.grib2 2026-04-25 08:59 319K
20260425T06Z_MSC_RDPS_WindV_IsbL-0030_RLatLon0.09_PT056H.grib2 2026-04-25 08:59 357K
20260425T06Z_MSC_RDPS_WindV_IsbL-0050_RLatLon0.09_PT056H.grib2 2026-04-25 08:59 348K
20260425T06Z_MSC_RDPS_WindV_IsbL-0100_RLatLon0.09_PT056H.grib2 2026-04-25 08:59 327K
20260425T06Z_MSC_RDPS_WindV_IsbL-0150_RLatLon0.09_PT056H.grib2 2026-04-25 08:59 386K
20260425T06Z_MSC_RDPS_WindV_IsbL-0175_RLatLon0.09_PT056H.grib2 2026-04-25 08:59 318K
20260425T06Z_MSC_RDPS_WindV_IsbL-0200_RLatLon0.09_PT056H.grib2 2026-04-25 08:59 333K
20260425T06Z_MSC_RDPS_WindV_IsbL-0225_RLatLon0.09_PT056H.grib2 2026-04-25 08:59 362K
20260425T06Z_MSC_RDPS_WindV_IsbL-0250_RLatLon0.09_PT056H.grib2 2026-04-25 08:59 361K
20260425T06Z_MSC_RDPS_WindV_IsbL-0275_RLatLon0.09_PT056H.grib2 2026-04-25 08:59 374K
20260425T06Z_MSC_RDPS_WindV_IsbL-0300_RLatLon0.09_PT056H.grib2 2026-04-25 08:59 346K
20260425T06Z_MSC_RDPS_WindV_IsbL-0350_RLatLon0.09_PT056H.grib2 2026-04-25 08:59 355K
20260425T06Z_MSC_RDPS_WindV_IsbL-0400_RLatLon0.09_PT056H.grib2 2026-04-25 08:59 358K
20260425T06Z_MSC_RDPS_WindV_IsbL-0450_RLatLon0.09_PT056H.grib2 2026-04-25 08:59 457K
20260425T06Z_MSC_RDPS_WindV_IsbL-0500_RLatLon0.09_PT056H.grib2 2026-04-25 08:59 455K
20260425T06Z_MSC_RDPS_WindV_IsbL-0550_RLatLon0.09_PT056H.grib2 2026-04-25 08:59 456K
20260425T06Z_MSC_RDPS_WindV_IsbL-0600_RLatLon0.09_PT056H.grib2 2026-04-25 08:59 466K
20260425T06Z_MSC_RDPS_WindV_IsbL-0650_RLatLon0.09_PT056H.grib2 2026-04-25 08:59 486K
20260425T06Z_MSC_RDPS_WindV_IsbL-0700_RLatLon0.09_PT056H.grib2 2026-04-25 08:59 506K
20260425T06Z_MSC_RDPS_WindV_IsbL-0750_RLatLon0.09_PT056H.grib2 2026-04-25 08:59 532K
20260425T06Z_MSC_RDPS_WindV_IsbL-0800_RLatLon0.09_PT056H.grib2 2026-04-25 08:59 567K
20260425T06Z_MSC_RDPS_WindV_IsbL-0850_RLatLon0.09_PT056H.grib2 2026-04-25 08:59 618K
20260425T06Z_MSC_RDPS_WindV_IsbL-0875_RLatLon0.09_PT056H.grib2 2026-04-25 08:59 638K
20260425T06Z_MSC_RDPS_WindV_IsbL-0900_RLatLon0.09_PT056H.grib2 2026-04-25 08:59 652K
20260425T06Z_MSC_RDPS_WindV_IsbL-0925_RLatLon0.09_PT056H.grib2 2026-04-25 08:59 661K
20260425T06Z_MSC_RDPS_WindV_IsbL-0950_RLatLon0.09_PT056H.grib2 2026-04-25 08:59 660K
20260425T06Z_MSC_RDPS_WindV_IsbL-0970_RLatLon0.09_PT056H.grib2 2026-04-25 08:59 656K
20260425T06Z_MSC_RDPS_WindV_IsbL-0985_RLatLon0.09_PT056H.grib2 2026-04-25 08:59 796K
20260425T06Z_MSC_RDPS_WindV_IsbL-1000_RLatLon0.09_PT056H.grib2 2026-04-25 08:59 795K
20260425T06Z_MSC_RDPS_WindV_IsbL-1015_RLatLon0.09_PT056H.grib2 2026-04-25 08:59 790K